Regional Weather Roundup
Issued by NWS

Home | Current Version | Previous Version | Text Only | Print | Product List | Glossary On
Versions: 1 2 3 4 5 6 7 8 9 10 11 12 13 14 15 16 17 18 19 20 21 22 23 24 25 26 27 28 29 30 31 32 33 34 35 36 37 38 39 40 41 42 43 44 45 46 47 48 49 50
000
ASUS45 KBOI 211610
RWRID
WEATHER ROUNDUP FOR IDAHO
NATIONAL WEATHER SERVICE BOISE ID
900 AM MST SUN DEC 21 2014

NOTE: "FAIR" INDICATES FEW OR NO CLOUDS BELOW 12000 FEET
WITH NO SIGNIFICANT WEATHER AND/OR OBSTRUCTIONS TO VISIBILITY

IDZ012-014-211700-
SOUTHWEST IDAHO


CITY           SKY/WX    TMP DP  RH WIND       PRES   REMARKS
BOISE          CLOUDY    44  41  89 CALM      29.85R
CALDWELL       CLOUDY    43  37  81 NE6       29.86R
MOUNTAIN HOME  LGT RAIN  47  42  84 W9        29.85S
$$

IDZ016-017-211700-
SOUTHCENTRAL IDAHO


CITY           SKY/WX    TMP DP  RH WIND       PRES   REMARKS
BURLEY         CLOUDY    47  41  80 W21G31    29.84R
JEROME         LGT RAIN  45  41  86 SW21G28   29.85R
TWIN FALLS     LGT RAIN  49  41  74 SW29G37   29.85R
$$

IDZ019>023-211700-
SOUTHEAST IDAHO


CITY           SKY/WX    TMP DP  RH WIND       PRES   REMARKS
IDAHO FALLS    CLOUDY    41  38  89 SW21G32   29.72S
POCATELLO      MOCLDY    43  42  97 SW24G31   29.81S
REXBURG        CLOUDY    38  36  92 SW14      29.71R WCI  30
$$

IDZ006-010-011-018-031-032-211700-
CENTRAL IDAHO MOUNTAINS


CITY           SKY/WX    TMP DP  RH WIND       PRES   REMARKS
MCCALL         LGT RAIN  34  33  96 N5        29.79R WCI  30
HAILEY         LGT SNOW  32  32 100 CALM      29.80S VSB 1
STANLEY          N/A     37  31  78 N10       29.77R WCI  30
SALMON         CLOUDY    39  36  87 W8G20     29.64R WCI  34
CHALLIS        LGT RAIN  35  34  96 NW3       29.71R
$$

IDZ002-004-006-007-026-211700-
NORTHERN IDAHO


CITY           SKY/WX    TMP DP  RH WIND       PRES   REMARKS
LEWISTON       LGT RAIN  54  40  59 W20G33    29.76R
LOWELL           N/A     40  38  93 CALM      29.76R
COEUR D`ALENE  PTCLDY    39  36  87 SW21      29.63S WCI  29
MULLAN PASS      N/A    N/A N/A N/A MISG      29.59R
$$


USA.gov is the U.S. government's official web portal to all federal, state and local government web resources and services.